Temperature
20 20 20 21 21 19 18 18 18 18 18 19 18 18 19 20 21 21 22 22 22 22 22 22 22 21 21 20 20 19 18 18 18 17 17 16 16 16 15 15 15 14 14 14
20 21 20 20 21 20 19 19 18 19 18 18 18 19 19 19 20 20 21 22 22 22 22 22 22 21 21 20 20 19 18 18 18 17 17 17 16 16 16 15 15 14 14 14
19 19 20 20 20 20 19 19 18 18 18 17 17 16 17 18 19 20 21 22 22 22 22 22 22 22 21 21 20 19 19 18 18 17 17 17 16 16 16 15 15 15 14 14
17 19 20 19 19 19 19 18 17 17 17 17 17 18 18 19 20 21 22 22 22 22 22 22 22 22 21 20 20 19 19 18 18 18 17 17 17 16 16 15 15 15 14 14
16 17 18 19 19 18 18 18 17 16 16 17 18 18 18 18 19 21 21 22 22 22 22 22 22 21 21 20 20 19 19 19 18 18 17 17 17 16 16 15 15 15 14 14
15 18 18 19 19 18 18 18 17 16 16 16 17 16 16 18 19 20 20 21 21 21 21 21 21 20 20 19 19 19 19 18 18 17 17 17 16 16 15 15 15 14 14 14
15 16 17 18 17 18 18 18 17 16 16 16 15 16 17 18 19 19 20 20 20 20 20 20 20 19 19 19 19 19 18 18 17 17 17 16 16 15 15 15 14 14 14 13
14 16 17 17 17 17 17 16 16 16 16 16 16 16 17 18 18 19 19 19 19 19 19 19 19 19 19 19 18 18 17 17 17 16 16 15 15 15 14 14 14 13 13 13
14 15 16 15 16 16 17 16 16 16 16 16 16 16 16 17 18 18 18 18 18 18 18 18 18 18 18 18 17 17 16 16 16 16 15 15 14 14 14 14 13 13 13 13
14 14 15 16 16 16 17 16 17 17 17 17 16 16 16 17 17 17 17 17 17 17 17 17 17 17 16 16 16 16 15 15 15 15 14 14 14 13 13 13 13 13 12 12
14 14 15 16 16 16 16 16 16 16 16 16 16 16 16 16 16 16 16 16 16 16 16 16 15 15 15 15 15 15 14 14 14 14 13 13 13 13 13 12 12 12 12 12
14 15 14 15 16 16 16 16 16 16 16 16 16 16 16 15 15 15 15 15 15 15 15 14 14 14 14 14 14 14 14 13 13 13 12 12 12 12 12 12 12 11 11 11
16 16 16 15 16 16 16 16 16 16 16 15 15 15 15 15 15 15 14 14 14 14 14 13 13 13 13 13 13 13 13 12 12 12 12 11 11 11 11 11 11 11 11 11
15 15 15 15 15 15 16 15 15 15 15 15 15 14 14 14 14 14 13 13 13 13 13 13 12 12 12 12 12 12 12 11 11 11 11 11 10 10 10 10 10 11 11 11
15 15 15 15 15 15 15 15 15 14 14 14 14 14 14 14 13 13 13 12 12 12 12 12 12 11 11 11 11 11 11 11 10 10 10 10 10 10 9 9 9 9 10 10
14 14 15 14 14 14 14 14 14 14 14 14 13 13 13 13 13 12 12 12 12 12 11 11 11 11 11 11 11 10 10 10 10 10 10 9 9 9 9 9 9 9 9 9
14 13 14 14 14 13 13 13 14 13 13 13 13 13 13 13 12 12 12 11 11 11 11 11 11 11 10 10 10 10 10 10 9 9 9 9 9 9 8 8 8 8 8 8
14 14 14 14 13 13 13 13 13 13 13 13 13 12 12 12 12 12 11 11 11 11 11 11 11 10 10 10 10 10 10 9 9 9 9 9 8 8 8 8 8 8 8 8
13 13 13 13 13 13 13 13 13 12 12 12 12 12 12 12 11 11 11 11 11 11 11 11 10 10 10 10 10 10 9 9 9 9 8 8 8 8 7 7 7 7 7 7
12 12 12 12 12 12 12 12 12 12 12 12 12 12 11 11 11 11 11 11 11 11 11 11 10 10 10 10 10 9 9 9 9 8 8 8 7 7 7 7 6 6 6 7
12 12 12 12 12 12 12 12 12 12 11 11 11 11 11 11 11 11 11 11 11 11 10 10 10 10 10 9 9 9 9 8 8 8 7 7 7 6 6 6 6 6 6 6
11 11 11 11 11 11 11 11 11 11 11 11 11 11 11 11 11 11 11 10 10 10 10 10 10 9 9 9 9 8 8 8 7 7 7 6 6 6 5 5 5 5 5 6
11 11 11 11 11 11 11 11 11 11 11 11 11 10 10 10 10 10 10 10 10 10 9 9 9 9 9 8 8 8 7 7 7 6 6 5 5 5 5 5 5 5 5 5
10 10 10 10 10 10 10 10 10 10 10 10 10 10 10 10 10 9 9 9 9 9 9 9 8 8 8 7 7 7 7 6 6 5 5 5 5 5 5 5 5 4 5 5
9 9 9 10 10 10 9 9 9 9 9 9 9 9 9 9 9 9 9 8 8 8 8 8 8 7 7 7 6 6 6 5 5 5 4 4 4 4 4 4 4 4 4 4
9 9 9 9 9 8 8 8 8 8 8 8 8 8 8 8 8 8 8 8 7 7 7 7 7 6 6 6 6 5 5 5 4 4 4 4 4 4 4 4 4 4 4 4
8 8 8 8 8 8 7 7 7 7 7 7 7 7 7 7 7 7 7 7 6 6 6 6 6 6 5 5 5 4 4 4 3 3 3 3 3 3 3 3 3 4 4 4
Wind_Speed
6 4 4 4 5 8 8 8 9 9 8 10 8 8 7 7 8 8 9 10 12 12 11 10 10 9 9 9 9 9 9 9 10 9 8 7 7 7 7 7 7 7 6 7
2 2 3 3 5 7 7 6 7 6 8 8 5 3 2 4 7 9 10 11 11 10 10 11 12 11 10 10 9 9 9 10 9 7 7 8 8 7 7 7 6 6 7 8
3 2 1 5 7 7 5 5 7 9 8 3 1 2 5 5 6 8 9 9 10 11 12 12 13 13 13 12 10 10 10 9 8 8 8 8 7 7 7 7 6 7 7 8
1 2 5 7 1 3 4 3 4 5 5 5 5 3 1 2 5 6 6 6 8 9 9 9 9 9 9 9 10 11 10 9 8 8 9 7 7 8 8 6 6 7 8 8
3 3 6 4 1 3 4 4 4 4 5 4 2 2 3 3 1 4 4 5 6 7 6 6 7 7 8 8 9 9 10 9 9 9 9 8 8 8 7 5 7 7 6 8
4 3 6 6 2 2 3 3 3 3 4 2 1 1 2 4 3 2 1 2 2 4 4 5 5 7 8 7 8 9 9 9 8 8 8 8 9 7 5 6 7 7 8 8
4 4 7 4 2 2 4 5 1 2 1 0 1 3 2 3 3 3 4 4 4 4 4 4 5 7 7 7 8 8 6 6 6 7 7 7 6 5 5 6 6 7 8 9
4 4 7 2 2 4 5 1 1 1 1 2 2 2 3 3 4 5 7 6 5 5 4 3 5 6 5 5 5 4 4 4 4 5 5 5 5 5 5 5 6 7 7 9
7 7 4 2 2 2 2 1 1 1 2 3 4 4 4 5 6 7 7 6 5 6 7 6 5 5 4 2 2 3 3 3 2 3 4 4 4 5 4 4 5 6 6 8
3 5 4 3 1 1 1 2 2 3 4 5 6 6 7 7 6 6 6 6 5 7 7 5 4 4 3 3 3 4 3 1 1 2 2 2 3 4 4 5 6 7 7 8
4 5 2 2 1 2 4 5 6 7 7 7 9 8 8 7 6 5 5 5 6 6 6 5 4 4 3 2 4 4 2 1 1 0 1 2 3 4 6 7 7 8 8 8
5 5 4 1 2 5 7 7 8 9 9 8 9 9 8 7 5 6 6 6 7 6 6 5 5 4 3 3 3 4 3 2 1 1 1 2 4 5 8 10 13 14 15 13
3 1 3 3 4 6 8 8 9 9 9 9 7 7 8 6 5 6 6 6 6 4 4 3 3 3 2 2 3 4 2 0 1 1 2 3 3 4 7 8 10 12 14 15
2 4 4 3 5 7 10 10 10 10 8 8 6 6 7 7 6 7 6 4 4 4 3 3 3 2 2 2 3 2 2 1 1 2 3 3 4 5 5 7 9 8 10 13
6 6 6 7 9 9 9 10 11 9 7 7 5 6 6 6 5 3 3 3 4 4 3 2 2 2 2 1 2 1 1 1 2 3 3 4 5 5 6 7 8 9 9 11
9 11 12 12 11 9 9 9 9 6 5 5 4 4 3 3 3 2 2 2 2 1 1 1 1 2 2 0 0 1 2 4 4 3 4 4 5 5 6 7 8 9 9 10
9 8 9 9 9 7 6 6 5 5 4 3 2 1 2 2 2 2 2 2 1 2 3 3 3 3 2 1 1 2 2 4 6 5 4 5 5 6 7 8 8 9 10 11
9 8 8 8 8 8 6 5 4 4 2 1 0 1 1 1 2 3 4 3 3 4 5 5 5 4 4 3 3 3 3 4 4 5 5 5 6 7 7 8 10 11 11 11
11 10 9 7 6 5 4 2 1 1 1 1 1 2 3 4 4 4 3 3 3 5 6 6 6 5 5 5 4 3 4 5 5 6 6 7 7 7 8 9 10 11 11 11
10 8 8 6 4 3 2 0 1 1 2 2 2 3 4 5 5 5 4 4 6 6 6 6 5 5 5 6 5 3 4 5 6 6 6 7 7 8 9 10 11 11 11 11
7 6 5 4 3 3 2 2 2 3 4 3 3 5 6 6 5 4 3 5 7 6 6 7 5 5 5 5 5 4 4 5 6 6 7 7 8 9 10 10 11 11 11 11
4 3 3 3 3 4 4 4 4 4 5 5 5 5 5 6 5 4 5 6 7 8 5 4 4 5 6 5 3 4 5 6 6 6 7 7 8 9 10 11 11 11 10 10
2 3 3 4 3 4 5 4 4 4 4 5 5 5 5 5 4 3 5 5 5 7 5 4 5 7 7 4 3 4 5 6 6 6 7 7 8 8 9 11 10 10 10 10
2 3 3 3 2 3 4 6 5 4 4 5 5 5 4 3 4 4 5 7 8 7 4 5 6 7 5 3 3 4 5 6 6 7 8 8 8 8 9 9 10 9 9 10
3 3 3 4 3 3 4 5 5 5 5 5 6 5 3 3 4 5 5 5 6 6 4 4 5 5 3 3 4 5 5 6 6 7 7 8 8 9 9 9 9 9 9 9
3 3 3 3 3 3 3 3 3 4 4 5 6 6 5 4 4 4 4 4 5 5 4 3 4 4 4 4 4 5 5 6 7 7 7 8 9 9 8 9 10 9 8 8
4 3 3 4 4 4 4 4 4 5 5 5 6 6 6 6 5 4 4 4 4 4 3 3 3 4 4 4 5 5 6 6 6 6 7 7 8 8 8 10 8 8 8 8
Wind_Direction
227 222 181 206 200 178 187 193 196 229 230 255 257 238 230 215 200 192 196 197 196 196 194 191 190 190 191 190 183 177 180 193 205 206 203 203 208 214 217 219 225 229 236 243
266 222 194 235 239 207 208 206 220 244 259 255 259 231 216 199 187 192 200 203 202 197 190 190 192 191 188 188 182 172 183 204 207 200 200 206 212 215 218 224 228 228 235 242
249 304 70 259 234 206 203 204 195 221 240 272 265 213 207 196 188 197 202 199 195 197 198 197 195 189 189 189 175 175 191 201 199 197 202 210 211 211 221 226 226 232 239 241
162 96 231 248 281 176 182 222 224 237 253 245 230 233 226 176 187 204 203 196 202 201 199 198 191 188 183 172 174 185 194 202 200 197 208 208 203 215 223 222 226 236 243 244
133 204 270 292 225 160 172 247 222 233 264 263 225 91 21 356 266 211 209 203 203 200 195 183 179 175 164 170 178 187 200 205 203 200 206 205 211 221 222 219 231 237 244 243
137 179 237 247 226 171 127 271 233 217 256 281 49 105 294 338 344 358 68 121 151 148 133 149 160 149 156 174 181 199 206 205 198 196 203 211 218 221 217 218 234 241 248 248
168 217 259 261 266 123 169 246 241 194 231 57 114 189 262 343 13 37 67 77 93 114 129 158 152 152 164 174 197 205 193 186 188 197 206 213 216 217 219 226 239 246 253 258
159 199 254 286 121 180 214 232 132 142 132 103 102 79 39 28 38 54 59 66 85 98 91 89 129 144 156 188 204 172 162 174 191 200 212 217 214 224 223 225 242 256 260 268
189 213 246 264 231 262 175 163 169 136 128 118 103 84 63 44 42 51 58 61 68 84 78 68 86 116 143 210 130 125 143 176 194 198 212 210 211 226 229 227 239 257 260 267
253 269 261 263 250 273 167 151 115 116 113 109 102 86 72 59 47 47 47 56 67 78 77 66 67 82 98 93 118 127 140 160 169 194 228 235 231 230 235 242 248 256 260 265
259 277 306 319 155 121 98 94 90 86 91 106 104 87 78 65 51 51 55 57 71 85 90 79 69 59 49 80 113 112 108 98 82 223 251 262 260 249 248 248 244 248 259 260
230 234 185 206 99 110 104 97 101 96 81 76 87 90 82 72 55 56 59 64 69 69 73 68 70 64 44 52 102 109 92 67 28 320 293 283 286 293 265 258 266 259 254 255
229 151 128 106 90 94 100 98 96 95 98 90 79 85 86 78 62 61 63 64 71 75 79 77 70 54 29 49 88 99 105 88 311 303 293 290 290 293 299 299 285 278 272 268
135 114 94 84 93 93 99 97 90 81 79 85 86 84 85 79 69 65 59 57 69 73 64 61 59 25 353 51 78 79 66 18 340 299 294 294 291 289 287 293 302 302 293 284
59 86 105 97 89 88 91 94 90 81 74 67 70 79 85 86 80 66 48 54 64 62 50 49 47 338 326 77 97 73 7 314 300 292 291 289 290 292 293 292 290 292 298 299
82 84 90 89 85 84 85 91 94 88 80 76 71 72 84 92 86 57 25 47 75 53 306 308 291 285 300 35 85 332 315 310 307 291 292 295 296 297 298 298 297 296 295 295
93 92 97 99 94 89 85 88 98 99 91 91 100 104 90 78 53 2 324 317 289 271 267 252 258 277 285 263 254 274 290 300 305 300 290 288 291 294 295 296 297 297 293 290
82 86 92 102 104 96 86 84 91 94 100 206 133 97 124 169 235 261 276 300 319 308 284 261 258 271 277 271 256 260 272 280 285 286 287 289 292 292 294 295 297 297 298 299
74 79 79 80 91 102 105 101 91 62 303 276 238 248 255 254 253 260 270 284 284 283 278 271 268 264 270 274 271 259 270 281 288 290 290 292 296 297 298 300 300 299 300 301
69 73 75 70 69 83 89 42 282 290 286 283 274 277 278 275 271 270 267 263 255 250 262 276 277 269 270 278 283 267 273 281 289 294 295 297 299 301 302 302 302 302 302 301
68 67 67 58 39 21 353 325 314 302 302 296 270 266 270 276 278 268 260 276 279 273 272 274 270 268 273 279 286 278 281 286 291 294 297 299 301 302 302 302 303 303 301 301
45 35 19 6 353 335 329 328 319 309 309 305 294 286 285 288 291 282 256 250 270 289 291 280 277 278 286 290 286 286 289 291 293 294 294 295 297 299 300 301 302 302 302 302
356 344 334 327 320 311 320 328 327 318 310 305 298 293 285 279 273 265 285 281 282 291 291 281 285 295 303 305 295 292 294 295 294 294 293 293 295 296 297 299 301 302 304 304
335 323 313 314 335 354 341 329 330 323 312 306 298 290 281 289 294 266 261 289 304 304 297 292 300 308 314 306 298 296 295 295 296 296 296 297 298 298 299 300 301 303 304 304
1 357 1 7 6 338 311 314 325 329 329 322 317 313 300 264 265 288 298 302 308 312 310 311 318 325 326 313 306 303 302 303 305 305 302 303 304 304 303 304 305 307 309 310
353 342 331 315 296 292 300 307 306 307 314 315 314 312 315 311 302 303 312 319 322 322 321 323 332 336 334 326 322 320 316 314 313 311 311 311 310 308 306 308 309 311 311 312
347 341 334 331 323 313 306 299 294 298 298 296 299 307 315 321 325 332 335 333 332 333 334 337 342 342 338 337 335 332 327 323 321 320 321 320 316 313 314 314 314 312 312 315
Height
1475 1472 1474 1475 1476 1481 1486 1488 1494 1487 1484 1473 1467 1466 1464 1465 1468 1471 1474 1477 1481 1484 1489 1493 1497 1501 1505 1508 1511 1514 1517 1519 1521 1523 1525 1526 1527 1527 1528 1528 1528 1528 1528 1527
1474 1471 1472 1475 1472 1474 1476 1477 1480 1479 1476 1464 1463 1463 1463 1463 1465 1467 1469 1473 1476 1480 1484 1488 1492 1496 1500 1503 1507 1510 1513 1515 1517 1519 1521 1522 1523 1523 1524 1524 1524 1524 1523 1523
1483 1476 1474 1481 1471 1470 1471 1469 1472 1475 1469 1463 1462 1461 1460 1460 1462 1463 1465 1468 1472 1476 1479 1483 1487 1491 1495 1499 1503 1506 1508 1511 1513 1514 1516 1517 1519 1519 1520 1520 1520 1519 1519 1518
1486 1482 1489 1475 1463 1463 1466 1467 1466 1465 1463 1462 1460 1459 1459 1459 1460 1461 1463 1466 1469 1472 1476 1479 1484 1487 1491 1495 1499 1501 1504 1506 1508 1510 1511 1513 1515 1515 1515 1516 1515 1515 1515 1514
1490 1489 1482 1470 1464 1464 1467 1468 1464 1464 1462 1460 1458 1458 1460 1460 1459 1460 1462 1464 1467 1470 1473 1477 1480 1484 1487 1491 1494 1497 1499 1502 1504 1505 1507 1509 1510 1511 1511 1511 1511 1510 1510 1509
1488 1488 1488 1471 1461 1460 1465 1469 1462 1461 1461 1460 1458 1463 1463 1460 1460 1460 1461 1463 1466 1469 1471 1475 1478 1481 1484 1487 1490 1493 1495 1498 1500 1502 1504 1504 1505 1506 1506 1506 1506 1505 1504 1503
1485 1486 1477 1463 1460 1461 1473 1469 1460 1459 1460 1460 1460 1462 1463 1461 1460 1460 1460 1462 1465 1467 1469 1472 1476 1479 1481 1483 1486 1489 1492 1494 1496 1498 1499 1500 1501 1501 1501 1501 1500 1499 1498 1497
1484 1486 1479 1460 1460 1463 1463 1459 1459 1459 1460 1460 1461 1461 1462 1461 1461 1460 1460 1462 1465 1467 1468 1471 1473 1476 1478 1480 1483 1486 1488 1490 1491 1493 1494 1495 1496 1496 1496 1495 1494 1493 1492 1491
1473 1472 1462 1459 1459 1459 1459 1459 1459 1460 1461 1461 1462 1462 1462 1462 1462 1462 1463 1464 1465 1466 1468 1471 1472 1474 1476 1479 1481 1483 1485 1486 1487 1488 1489 1490 1490 1490 1490 1489 1487 1486 1485 1483
1466 1461 1458 1457 1457 1458 1458 1459 1460 1460 1461 1462 1463 1463 1463 1463 1464 1464 1465 1465 1466 1467 1469 1471 1473 1474 1476 1478 1479 1481 1482 1483 1484 1484 1485 1485 1485 1485 1484 1483 1481 1480 1478 1476
1464 1459 1457 1456 1457 1458 1459 1460 1460 1461 1462 1463 1463 1464 1464 1465 1466 1466 1467 1468 1468 1469 1470 1471 1473 1474 1476 1477 1478 1479 1479 1480 1480 1480 1480 1480 1480 1479 1478 1477 1476 1474 1472 1470
1461 1456 1456 1456 1457 1458 1459 1461 1462 1463 1464 1465 1465 1466 1467 1468 1469 1469 1469 1470 1470 1471 1471 1472 1473 1474 1475 1476 1476 1476 1476 1477 1477 1476 1476 1475 1474 1473 1472 1471 1469 1467 1465 1463
1455 1455 1456 1457 1458 1460 1461 1463 1465 1466 1467 1468 1469 1470 1471 1472 1472 1472 1472 1472 1472 1473 1473 1474 1474 1474 1475 1475 1474 1474 1474 1474 1474 1473 1472 1471 1469 1467 1465 1464 1463 1460 1458 1455
1454 1455 1457 1458 1460 1462 1464 1467 1468 1470 1471 1472 1473 1474 1474 1474 1474 1474 1474 1474 1474 1474 1474 1474 1474 1474 1474 1473 1473 1472 1472 1471 1471 1470 1468 1467 1465 1462 1460 1457 1454 1451 1450 1448
1456 1457 1459 1461 1463 1465 1468 1469 1471 1473 1475 1476 1477 1477 1477 1477 1477 1477 1477 1477 1476 1475 1475 1474 1474 1473 1473 1472 1471 1471 1470 1469 1467 1466 1464 1462 1460 1457 1455 1452 1448 1444 1441 1439
1459 1460 1462 1464 1467 1470 1472 1473 1474 1476 1478 1479 1479 1479 1479 1479 1479 1478 1478 1477 1476 1475 1475 1474 1473 1473 1472 1471 1470 1469 1467 1466 1464 1462 1460 1457 1455 1452 1449 1446 1442 1438 1435 1432
1462 1464 1466 1468 1471 1474 1476 1477 1478 1479 1480 1481 1481 1481 1481 1480 1479 1479 1478 1477 1476 1475 1474 1473 1472 1471 1470 1469 1468 1466 1465 1463 1461 1458 1455 1453 1450 1447 1444 1440 1436 1432 1428 1425
1468 1469 1471 1472 1474 1476 1478 1480 1481 1481 1482 1482 1482 1481 1480 1479 1478 1478 1477 1476 1475 1474 1473 1472 1471 1469 1468 1467 1465 1463 1461 1459 1456 1454 1451 1448 1445 1442 1438 1434 1430 1425 1421 1418
1473 1474 1476 1478 1479 1480 1481 1482 1482 1482 1482 1482 1481 1480 1479 1478 1477 1476 1475 1474 1473 1472 1471 1470 1468 1467 1465 1463 1462 1459 1457 1454 1452 1449 1446 1443 1439 1436 1432 1428 1423 1419 1415 1411
1477 1479 1480 1481 1482 1482 1483 1483 1482 1482 1482 1481 1480 1479 1478 1476 1475 1474 1472 1471 1470 1469 1467 1466 1465 1463 1461 1459 1457 1455 1452 1449 1446 1443 1440 1437 1433 1430 1426 1421 1417 1413 1408 1404
1481 1482 1483 1483 1483 1483 1483 1483 1482 1481 1480 1479 1478 1476 1475 1474 1472 1471 1469 1468 1467 1465 1464 1462 1461 1459 1457 1454 1452 1449 1447 1444 1441 1437 1434 1431 1427 1423 1419 1415 1411 1406 1402 1398
1484 1484 1484 1484 1483 1483 1482 1482 1481 1479 1478 1477 1475 1474 1472 1470 1469 1467 1466 1464 1463 1461 1460 1458 1456 1454 1452 1449 1446 1444 1441 1438 1435 1431 1428 1424 1421 1417 1413 1409 1404 1400 1396 1392
1484 1484 1484 1484 1483 1482 1481 1480 1478 1477 1475 1474 1472 1470 1468 1467 1465 1463 1462 1460 1459 1457 1455 1453 1451 1448 1446 1443 1441 1438 1435 1432 1429 1425 1422 1418 1415 1411 1407 1403 1399 1394 1390 1387
1484 1484 1483 1482 1481 1480 1479 1477 1476 1474 1473 1471 1469 1467 1465 1463 1461 1460 1458 1456 1454 1452 1450 1448 1445 1443 1441 1438 1435 1433 1429 1426 1423 1419 1416 1412 1409 1405 1401 1397 1393 1389 1385 1382
1483 1482 1481 1480 1479 1478 1476 1475 1473 1472 1470 1468 1466 1464 1462 1460 1458 1456 1454 1451 1449 1447 1445 1442 1440 1438 1435 1433 1430 1427 1424 1420 1417 1413 1410 1406 1403 1399 1396 1392 1388 1384 1381 1378
1482 1481 1480 1478 1477 1475 1474 1472 1470 1468 1466 1464 1462 1460 1458 1456 1454 1451 1449 1446 1444 1442 1440 1437 1435 1433 1430 1427 1424 1421 1418 1414 1411 1408 1404 1401 1397 1394 1390 1387 1384 1380 1377 1374
1480 1479 1477 1476 1474 1472 1470 1468 1466 1464 1462 1460 1458 1456 1454 1451 1449 1446 1444 1442 1440 1437 1435 1433 1430 1428 1425 1422 1419 1416 1413 1409 1406 1403 1399 1396 1392 1389 1386 1383 1379 1376 1373 1371